AirNav   Pilot Hours Calculator
 
 1836 users online  

C97 Lowell Airport
Lowell, Indiana, USA

GOING TO LOWELL?


FAA INFORMATION EFFECTIVE 26 JANUARY 2023

Location

FAA Identifier: C97
Lat/Long: 41-13-48.6100N 087-30-27.7000W
41-13.810167N 087-30.461667W
41.2301694,-87.5076944
(estimated)
Elevation: 671.8 ft. / 205 m (estimated)
Variation: 01W (1985)
From city: 5 miles SW of LOWELL, IN
Time zone: UTC -6 (UTC -5 during Daylight Saving Time)
Zip code: 46356

Airport Operations

Airport use: Open to the public
Activation date: 08/1980
Control tower: no
ARTCC: CHICAGO CENTER
FSS: TERRE HAUTE FLIGHT SERVICE STATION
NOTAMs facility: HUF (NOTAM-D service available)
Attendance: IREG
Wind indicator: yes
Segmented circle: yes
Landing fee: yes

Airport Communications

CTAF: 122.9
WX AWOS-AV at C56 (12 nm NW): 119.125 (708-534-5256)
WX AWOS-3 at IKK (18 nm SW): 128.475 (815-939-4044)
WX AWOS-3PT at IGQ (18 nm N): 119.275 (708-889-6319)
  • APCH/DEP SVC PRVDD BY CHICAGO ARTCC (ZAU) ON FREQS 132.95/284.7 (KANKAKEE RCAG).

Nearby radio navigation aids

VOR radial/distance  VOR name  Freq  Var
EONr098/13.0PEOTONE VORTAC113.2002E
CGTr168/17.0CHICAGO HEIGHTS VORTAC114.2002E
OXIr262/39.1KNOX VOR/DME115.6000E

Airport Services

Fuel available: 100LL
Parking: hangars and tiedowns
Airframe service: MAJOR
Powerplant service: MAJOR

Runway Information

Runway 18/36

Dimensions: 3041 x 100 ft. / 927 x 30 m
Surface: turf, in good condition
Runway edge markings: WHITE BARREL HALVES & LGT FIXTURES.
Operational restrictions: CROPS 75 FT E & 87 FT W OF CNTRLN.
RUNWAY 18  RUNWAY 36
Latitude: 41-14.060500N41-13.559833N
Longitude: 087-30.462000W087-30.461333W
Elevation: 671.8 ft.650.0 ft.
Traffic pattern: rightleft
Runway heading: 181 magnetic, 180 true001 magnetic, 360 true
Displaced threshold: 775 ft.no
Markings: NSTD, in fair conditionNSTD, in fair condition
Touchdown point: yes, no lightsyes, no lights
Obstructions: 10 ft. crops
APCH SLOPE 15:1 FM DSPLCD THR; 65 FT TREE 985 FT & 110 FT R.
10 ft. crops

Airport Ownership and Management from official FAA records

Ownership: Privately-owned
Owner: DONALD E. BAILEY
14705 BELSHAW RD.
LOWELL, IN 46356
Phone (219) 614-6633
Manager: KEVIN BAILEY
14705 BELSHAW RD
LOWELL, IN 46356
Phone (219) 614-6633

Airport Operational Statistics

Aircraft based on the field: 11
Single engine airplanes: 11
    
Aircraft operations: avg 37/week *
95% local general aviation
5% transient general aviation
* for 12-month period ending 31 December 2019

Additional Remarks

SNOW REMOVAL & MOWING WITH LARGE TRACTOR .
DEER ON & INVOF ARPT.
CALL FOR FUEL OR SVC BFR ARR - 219-613-4588.
FOR CD CTC CHICAGO ARTCC AT 630-906-8921.

Instrument Procedures

There are no published instrument procedures at C97.

Some nearby airports with instrument procedures:

C56 - Bult Field Airport (12 nm NW)
KIKK - Greater Kankakee Airport (18 nm SW)
05C - Griffith-Merrillville Airport (18 nm N)
KIGQ - Lansing Municipal Airport (18 nm N)
3HO - Hobart Sky Ranch Airport (22 nm NE)
 
Loc | Ops | Rwys | IFR | FBO | Links
Com | Nav | Svcs | Stats | Notes
Area around C97 (Lowell Airport)
 
Road maps at: MapQuest Bing Google
 
Aerial photo
WARNING: Photo may not be current or correct
Aerial photo of C97 (Lowell Airport)
Photo by Arthur Urban
Photo taken 22-Aug-2015

Do you have a better or more recent aerial photo of Lowell Airport that you would like to share? If so, please send us your photo.

 
Sectional chart

 
Airport distance calculator
Flying to Lowell Airport? Find the distance to fly.

From to C97

Sunrise and sunset
Times for 06-Feb-2023
 Local
(UTC-6)
 Zulu
(UTC)
Morning civil twilight06:2812:28
Sunrise06:5712:57
Sunset17:1123:11
Evening civil twilight17:4023:40

Current date and time
Zulu (UTC)  06-Feb-2023 16:43:28
Local (UTC-6)  06-Feb-2023 10:43:28
 
METAR
KIGQ 
18nm N 
061615Z AUTO 14011KT 10SM CLR 02/M02 A3024 RMK AO2 T00171020
KIKK 
18nm SW 
061615Z AUTO 14013KT 10SM CLR 02/M02 A3025 RMK AO2 T00171020
KRZL 
22nm SE 
061615Z AUTO 13006KT 10SM CLR 01/M02 A3027 RMK AO2
KGYY 
24nm N 
061545Z 15006KT 10SM CLR 01/M03 A3026
KVPZ 
26nm NE 
061556Z AUTO 14012KT 10SM CLR 01/M03 A3025 RMK AO2 SLP252 T00061028
KJOT 
34nm NW 
061615Z AUTO 16007KT 10SM CLR 02/M01 A3024 RMK AO2 T00241014
KMDW 
35nm N 
061553Z 14011KT 10SM FEW015 FEW200 BKN250 02/M03 A3023 RMK AO2 SLP246 T00171033
KLOT 
35nm NW 
061555Z 14012KT 10SM CLR 00/M02 A3023
TAF
KGYY 
24nm N 
061501Z 0615/0712 15010KT P6SM SCT250 FM061800 15013G20KT P6SM BKN250 FM070200 17016G26KT P6SM BKN050 FM070600 20016G28KT P6SM OVC020 TEMPO 0707/0711 3SM -SHRA BR OVC010
NOTAMs
Click for the latest NOTAMs
NOTAMs are issued by the DoD/FAA and will open in a separate window not controlled by AirNav.

 

 
 

FBO, Fuel Providers, and Aircraft Ground Support

  
 Business Name 
 
 Contact 
 
 Services / Description 
 
Fuel Prices
 
Comments
  
Lowell Aviation 219-696-9603
no information available

If you are affiliated with Lowell Aviation and would like to show here your services, contact info, web link, logo, and more, click here
100LL
RA $4.85 
 Updated 15-Aug-2018
 
   write
RA=Restricted
Update Fuel Prices
 

Would you like to see your business listed on this page?

 If your business provides an interesting product or service to pilots, flight crews, aircraft, or users of the Lowell Airport, you should consider listing it here.  To start the listing process, click on the button below
 
Add a business
 

Other Pages about Lowell Airport

Update a link
 
Copyright © AirNav, LLC. All rights reserved. Privacy Policy  Contact